H-2A DEB, 43069

Orbit data source: Space-Track

H-2A DEB, 43069 is space debris in SSO originally from a launch on Sat, 23 Dec 2017 UTC launched from the Tanegashima Space Center (TNSTA). Debris objects in space refer to the collection of defunct objects orbiting the Earth. Examples of debris include non-operational satellites, rocket bodies, and fragments generated from explosions, collisions, or faulty payload assembly.

Loading next visibility...
H-2A DEB details
Identifier
43069, 2017-082E
Orbit
SSO
Last TLE update11 hours ago
Origin
Flag of JPJAXA (JP / JPN)
ManufacturerMELCO
MissionSpacecraft
Bus & MotorUnknown
MassUnknown
Launch date (UTC)
2017-12-23 (7 years ago)
Launch vehicleUnknown
Launch site
Tanegashima Space Center (TNSTA)
Object type
Payload
Rocket body
Debris
Shape & HBRUnknown
Radar Cross SectionSmall (<0.1 m²)

Expand to show TLE details & history

TLE from 11 hours ago
0 H-2A DEB
1 43069U 17082E   24361.13994956  .00010232  00000-0  26058-2 0  9993
2 43069  98.3040  63.2110 0025283 352.8280   7.2549 14.50610456368522
Epoch: 2024-12-26T03:21Z
Definitive object data (Epoch: 2024-12-26T03:21:31.641Z)
Latitude-0.00009°
Longitude-82.29445°
Altitude708.81 km
Speed7.511 km/s
True Right ascension04h 12m 50s
True Declination0° 00' 00"
Sunlit
Object was in full shadow at TLE epoch
Visualization TLE readout
Latitude0.59069°
Longitude98.23339°
Altitude744.31 km
Speed7.473 km/s
Apparent Right ascension19h 07m 53s
Apparent Declination-40° 07' 16"
Sunlit
Object is in daylight
Visualization observer readout
Local Sidereal Time13:28:43
Azimuth125.281° SE
Elevation-21.115°
Doppler factor1
Orbital elements
Apogee altitude738.702 km
Perigee altitude702.806 km
Semi-major axis7,098.891 km
Eccentricity0.0025283
Inclination98.304°
RAAN63.211°
Arg. of periapsis352.828°
True anomaly7.2916°
Mean anomaly7.2549°
Eccentric anomaly7.27324°
Mean motion3.62875 °/min
BSTAR0.0026058
Orbital period99.21 mins
Loading maneuver chart data...
Loading historical data...
Loading historical data...
Loading historical data...
Loading historical data...
Loading historical data...
Loading historical data...
Loading historical data...
Other satellites on launch #82 in the year 2017 (2017-12-23 UTC)

H-2A DEB Visibility forecast

Observer location: undefined°, undefined

Span
Click to sort rows by Start time (UTC) header in descending order
Start Az.
Max El. time (UTC)
Max El. Az.
Max El.
End time (UTC)
End Az.
9 mins2024-12-26 17:09:56.461Z15.739° NNE2024-12-26 17:14:56.461Z144.39° SSE44.053°2024-12-26 17:18:56.461Z189.292° SSW
8 mins2024-12-27 04:18:56.461Z163.46° S2024-12-27 04:22:56.461Z1.565° NNE43.902°2024-12-27 04:26:56.461Z348.133° N
|